Find Starlink 31940

NORAD ID: 59873 Int'l Des: 2024-098 Owner: SPXS Country: US Constellation: starlink operational
LEOCIRCULAR

Current View

Loading 3D Globe...

About Starlink 31940

Starlink 31940 (NORAD 59873) is a starlink constellation satellite (v2 mini) launched May 24, 2024 by SPXS of US. It operates in LEO, CIRCULAR orbit with a mass of 730.00 kg.

About Starlink 31940

Description loading...

Upcoming Passes

Passes for default location (London). Set your location on the main map for personalized predictions.

Altitude History

Loading altitude history...

Two-Line Element Set

1 59873U 24098R 26170.03503388 .00000859 00000-0 40751-4 0 9994
2 59873 43.0022 58.0333 0001113 272.8693 87.2031 15.27577233117439
Epoch: Jun 19, 2026 • Age: 32 hours

Current Status

Altitude 484.3 km
Velocity 7.63 km/s
Sub-Earth Point 30.21°N, 151.49°E
Launch Date May 24, 2024
Age 2 years
Type internet

Technical Details

Classification Payload
Mass 730.00 kg
Dry Mass 700.00 kg
Total Mass 730.00 kg
Length 0.30 m
Diameter 4.10 m
Span 29.00 m
Shape Box + pan
Manufacturer SPXS
Bus Type Starlink V2M
Phase Status In Orbit
Owner/State SPXS/US

Most Searched